Simultaneous Nadir Overpasses (SNOs) Predictions

Prediction of SNOs between GOES-16 and NOAA-20 Satellite Orbit:

Table of predicted SNOs for the next 14.0 days since TLE Epoch: 8/10/2018
Index Date Time (GOES-16) GOES-16 Lat,Lon NOAA-20 Lat,Lon Distance(km) Time Diff (sec)
1 08/10/2018 18:33:50 0.03, -75.20 0.00, -77.37 240.66 0
2 08/11/2018 18:16:18 0.03, -75.20 0.59, -72.74 280.64 80
3 08/13/2018 06:35:27 -0.03, -75.21 0.57, -78.02 319.87 80
4 08/14/2018 06:19:22 -0.03, -75.21 -0.44, -73.49 196.87 80
5 08/15/2018 18:38:38 0.03, -75.22 -0.79, -78.78 406.94 80
6 08/16/2018 18:22:35 0.03, -75.23 0.28, -74.27 110.24 80
7 08/18/2018 06:44:22 -0.04, -75.24 0.95, -79.53 488.99 80
8 08/19/2018 06:25:39 -0.04, -75.25 -0.12, -75.01 28.51 80
9 08/21/2018 18:26:12 0.05, -75.29 -0.04, -75.79 56.88 80
10 08/22/2018 18:10:07 0.05, -75.30 0.97, -71.26 461.02 80
11 08/24/2018 06:31:55 -0.05, -75.33 0.20, -76.53 137.10 80




NCC Satellite Simultaneous Nadir Overpasses (SNOs) Prediction Service
